When you browse on this site, cookies collect data to enhance your experience and personalize the content and advertising you see.
Visit our Privacy Policy to learn more. By continuing to use the site, you agree to this use of cookies and data.
  • In Lithuania
  • List of Countries
  • For 7 days
  • Water Temperature
  • Satellite Maps
  • Weather Map
  • Weather Widgets
  • user-avatar
    Login

    Hourly Weather Annaba

    Today, 24 May, Friday

    Time Temperature Precipitation Wind Pressure Humidity
    00:00 +18°C° 0 mm 1 mps 761 mmHg 56%
    01:00 +18°C° 0 mm 1 mps 760 mmHg 57%
    02:00 +18°C° 0 mm 1 mps 760 mmHg 57%
    03:00 +16°C° 0 mm 1 mps 760 mmHg 58%
    04:00 +16°C° 0 mm 1 mps 759 mmHg 58%
    05:00 +18°C° 0 mm 1 mps 759 mmHg 56%
    06:00 +20°C° 0 mm 1 mps 759 mmHg 54%
    07:00 +21°C° 0 mm 1 mps 759 mmHg 52%
    08:00 +23°C° 0.1 mm 1 mps 759 mmHg 49%
    09:00 +25°C° 0.1 mm 1 mps 759 mmHg 45%
    10:00 +27°C° 0.1 mm 1 mps 758 mmHg 41%
    11:00 +28°C° 0.4 mm 2 mps 758 mmHg 44%
    12:00 +28°C° 0.4 mm 3 mps 758 mmHg 46%
    13:00 +28°C° 0.4 mm 4 mps 757 mmHg 49%
    14:00 +27°C° 2.2 mm 4 mps 757 mmHg 57%
    15:00 +25°C° 2.2 mm 3 mps 756 mmHg 65%
    16:00 +24°C° 2.2 mm 3 mps 756 mmHg 73%
    17:00 +23°C° 1.5 mm 2 mps 756 mmHg 77%
    18:00 +21°C° 1.5 mm 2 mps 756 mmHg 82%
    19:00 +21°C° 1.5 mm 1 mps 755 mmHg 86%
    20:00 +21°C° 0 mm 1 mps 756 mmHg 87%
    21:00 +18°C° 0 mm 0 mps 756 mmHg 88%
    22:00 +18°C° 0 mm 0 mps 756 mmHg 90%
    23:00 +20°C° 0.1 mm 1 mps 756 mmHg 89%

    Tomorrow, 25 May, Saturday

    Time Temperature Precipitation Wind Pressure Humidity
    00:00 +20°C° 0.1 mm 1 mps 756 mmHg 89%
    01:00 +20°C° 0.1 mm 1 mps 755 mmHg 88%
    02:00 +20°C° 0.2 mm 1 mps 755 mmHg 89%
    03:00 +19°C° 0.2 mm 2 mps 755 mmHg 90%
    04:00 +19°C° 0.2 mm 2 mps 754 mmHg 91%
    05:00 +19°C° 0.8 mm 2 mps 755 mmHg 92%
    06:00 +19°C° 0.8 mm 2 mps 755 mmHg 93%
    07:00 +20°C° 0.8 mm 1 mps 755 mmHg 94%
    08:00 +20°C° 1.9 mm 1 mps 755 mmHg 92%
    09:00 +21°C° 1.9 mm 1 mps 755 mmHg 89%
    10:00 +21°C° 1.9 mm 1 mps 756 mmHg 87%
    11:00 +21°C° 0.7 mm 2 mps 756 mmHg 83%
    12:00 +21°C° 0.7 mm 2 mps 756 mmHg 80%
    13:00 +22°C° 0.7 mm 3 mps 756 mmHg 76%
    14:00 +21°C° 1.2 mm 3 mps 755 mmHg 80%
    15:00 +21°C° 1.2 mm 3 mps 755 mmHg 83%
    16:00 +20°C° 1.2 mm 4 mps 755 mmHg 86%
    17:00 +19°C° 1.1 mm 4 mps 755 mmHg 88%
    18:00 +19°C° 1.1 mm 4 mps 755 mmHg 89%
    19:00 +18°C° 1.1 mm 3 mps 756 mmHg 91%
    20:00 +18°C° 0.7 mm 4 mps 756 mmHg 91%
    21:00 +18°C° 0.7 mm 4 mps 756 mmHg 92%
    22:00 +18°C° 0.7 mm 4 mps 757 mmHg 92%
    23:00 +18°C° 0.6 mm 4 mps 756 mmHg 91%

    Day after tomorrow, 26 May, Sunday

    Time Temperature Precipitation Wind Pressure Humidity
    00:00 +16°C° 0.6 mm 5 mps 756 mmHg 91%
    01:00 +16°C° 0.6 mm 5 mps 756 mmHg 91%
    02:00 +16°C° 0.7 mm 5 mps 755 mmHg 91%
    03:00 +16°C° 0.7 mm 5 mps 755 mmHg 90%
    04:00 +16°C° 0.7 mm 5 mps 755 mmHg 90%
    05:00 +16°C° 0.5 mm 6 mps 755 mmHg 89%
    06:00 +16°C° 0.5 mm 6 mps 755 mmHg 87%
    07:00 +16°C° 0.5 mm 6 mps 755 mmHg 85%
    08:00 +17°C° 0.3 mm 7 mps 755 mmHg 80%
    09:00 +18°C° 0.3 mm 8 mps 755 mmHg 76%
    10:00 +20°C° 0.3 mm 8 mps 755 mmHg 71%
    11:00 +20°C° 0.2 mm 8 mps 755 mmHg 71%
    12:00 +18°C° 0.2 mm 7 mps 755 mmHg 71%
    13:00 +18°C° 0.2 mm 7 mps 755 mmHg 72%
    14:00 +18°C° 0.4 mm 7 mps 755 mmHg 74%
    15:00 +18°C° 0.4 mm 7 mps 755 mmHg 77%
    16:00 +18°C° 0.4 mm 7 mps 754 mmHg 80%
    17:00 +18°C° 0.7 mm 7 mps 755 mmHg 82%
    18:00 +17°C° 0.7 mm 6 mps 755 mmHg 84%
    19:00 +17°C° 0.7 mm 6 mps 755 mmHg 87%
    20:00 +16°C° 0.5 mm 6 mps 755 mmHg 88%
    21:00 +16°C° 0.5 mm 5 mps 755 mmHg 90%
    22:00 +15°C° 0.5 mm 5 mps 756 mmHg 91%
    23:00 +16°C° 0.6 mm 6 mps 756 mmHg 91%

    27 May, Monday

    Time Temperature Precipitation Wind Pressure Humidity
    00:00 +16°C° 0.6 mm 6 mps 755 mmHg 90%
    01:00 +16°C° 0.6 mm 7 mps 755 mmHg 89%
    02:00 +16°C° 0.5 mm 7 mps 755 mmHg 89%
    03:00 +16°C° 0.5 mm 7 mps 755 mmHg 89%
    04:00 +16°C° 0.5 mm 8 mps 754 mmHg 89%
    05:00 +16°C° 1.1 mm 8 mps 755 mmHg 89%
    06:00 +16°C° 1.1 mm 8 mps 755 mmHg 89%
    07:00 +16°C° 1.1 mm 8 mps 755 mmHg 89%
    08:00 +17°C° 0.9 mm 8 mps 755 mmHg 87%
    09:00 +17°C° 0.9 mm 8 mps 756 mmHg 86%
    10:00 +18°C° 0.9 mm 8 mps 756 mmHg 84%
    11:00 +18°C° 0.8 mm 9 mps 756 mmHg 82%
    12:00 +19°C° 0.8 mm 9 mps 756 mmHg 80%
    13:00 +19°C° 0.8 mm 10 mps 756 mmHg 78%
    14:00 +19°C° 0.4 mm 10 mps 756 mmHg 76%
    15:00 +21°C° 0.4 mm 10 mps 756 mmHg 74%
    16:00 +21°C° 0.4 mm 9 mps 756 mmHg 72%
    17:00 +20°C° 0.2 mm 8 mps 756 mmHg 75%
    18:00 +20°C° 0.2 mm 8 mps 757 mmHg 77%
    19:00 +18°C° 0.2 mm 7 mps 757 mmHg 80%
    20:00 +19°C° 0.1 mm 6 mps 757 mmHg 82%
    21:00 +17°C° 0.1 mm 5 mps 758 mmHg 85%
    22:00 +16°C° 0.1 mm 5 mps 758 mmHg 88%
    23:00 +16°C° 0 mm 5 mps 758 mmHg 87%

    28 May, Tuesday

    Time Temperature Precipitation Wind Pressure Humidity
    00:00 +15°C° 0 mm 4 mps 758 mmHg 87%
    01:00 +15°C° 0 mm 4 mps 758 mmHg 86%
    02:00 +15°C° 0 mm 4 mps 758 mmHg 83%
    03:00 +15°C° 0 mm 4 mps 758 mmHg 81%
    04:00 +14°C° 0 mm 3 mps 758 mmHg 78%
    05:00 +16°C° 0 mm 3 mps 758 mmHg 75%
    06:00 +17°C° 0 mm 3 mps 758 mmHg 71%
    07:00 +18°C° 0 mm 3 mps 758 mmHg 68%
    08:00 +20°C° 0 mm 3 mps 758 mmHg 60%
    09:00 +24°C° 0 mm 2 mps 758 mmHg 53%
    10:00 +26°C° 0 mm 2 mps 758 mmHg 45%
    11:00 +27°C° 0 mm 2 mps 758 mmHg 42%
    12:00 +29°C° 0 mm 1 mps 758 mmHg 39%
    13:00 +30°C° 0 mm 1 mps 757 mmHg 35%
    14:00 +30°C° 0 mm 2 mps 757 mmHg 37%
    15:00 +30°C° 0 mm 3 mps 757 mmHg 39%
    16:00 +29°C° 0 mm 4 mps 756 mmHg 40%
    17:00 +28°C° 0 mm 4 mps 756 mmHg 48%
    18:00 +26°C° 0 mm 4 mps 756 mmHg 56%
    19:00 +24°C° 0 mm 3 mps 756 mmHg 63%
    20:00 +22°C° 0 mm 3 mps 756 mmHg 66%
    21:00 +21°C° 0 mm 2 mps 756 mmHg 68%
    22:00 +20°C° 0 mm 2 mps 757 mmHg 71%
    23:00 +20°C° 0 mm 2 mps 756 mmHg 67%

    29 May, Wednesday

    Time Temperature Precipitation Wind Pressure Humidity
    00:00 +21°C° 0 mm 1 mps 756 mmHg 64%
    01:00 +22°C° 0 mm 1 mps 756 mmHg 60%
    02:00 +22°C° 0 mm 1 mps 755 mmHg 59%
    03:00 +21°C° 0 mm 1 mps 755 mmHg 57%
    04:00 +21°C° 0 mm 1 mps 755 mmHg 55%
    05:00 +21°C° 0 mm 2 mps 755 mmHg 60%
    06:00 +21°C° 0 mm 3 mps 756 mmHg 64%
    07:00 +22°C° 0 mm 3 mps 756 mmHg 68%
    08:00 +21°C° 0 mm 4 mps 757 mmHg 71%
    09:00 +21°C° 0 mm 4 mps 757 mmHg 74%
    10:00 +21°C° 0 mm 5 mps 758 mmHg 77%
    11:00 +20°C° 0 mm 4 mps 758 mmHg 76%
    12:00 +20°C° 0 mm 3 mps 759 mmHg 75%
    13:00 +20°C° 0 mm 2 mps 759 mmHg 75%
    14:00 +20°C° 0.1 mm 3 mps 760 mmHg 73%
    15:00 +21°C° 0.1 mm 4 mps 760 mmHg 72%
    16:00 +21°C° 0.1 mm 4 mps 760 mmHg 70%
    17:00 +20°C° 0.1 mm 4 mps 761 mmHg 75%
    18:00 +19°C° 0.1 mm 4 mps 761 mmHg 79%
    19:00 +18°C° 0.1 mm 4 mps 762 mmHg 83%
    20:00 +18°C° 0.1 mm 4 mps 762 mmHg 82%
    21:00 +17°C° 0.1 mm 3 mps 763 mmHg 82%
    22:00 +17°C° 0.1 mm 3 mps 764 mmHg 81%
    23:00 +17°C° 0 mm 3 mps 764 mmHg 79%
    Show more